Weather History for Savannah Hunter, GA

Change the Weather History Date:

Thursday, January 17, 2013

  Actual Average Record
Temperature  
Mean Temperature 58 °F -  
Max Temperature 75 °F 59 °F 75 °F (2013)
Min Temperature 42 °F 37 °F 26 °F (1997)
Degree Days  
Heating Degree Days 6    
Growing Degree Days 8 (Base 50)    
Moisture  
Dew Point 53 °F    
Average Humidity 84    
Maximum Humidity 94    
Minimum Humidity 62    
Precipitation  
Precipitation 0.07 in - - ()
Sea Level Pressure  
Sea Level Pressure 29.90 in    
Wind  
Wind Speed 11 mph (SW)    
Max Wind Speed 28 mph    
Max Gust Speed 33 mph    
Visibility 9 miles    
Events Rain    
Averages and records for this station are not official NWS values.
T = Trace of Precipitation, MM = Missing Value Source: NWS Daily Summary

Daily Weather History Graph

Daily Weather History Graph

Search for Another Location

Airport:

Trip Planner

Search our weather history database for the weather conditions in past years. The results will help you decide how hot, cold, wet, or windy it might be!

Date:

Astronomy

Jan. 17, 2013 Rise Set
Actual Time 7:24 AM EST 5:44 PM EST
Civil Twilight 6:58 AM EST 6:11 PM EST
Nautical Twilight 6:28 AM EST 6:41 PM EST
Astronomical Twilight 5:59 AM EST 7:10 PM EST
Moon 10:57 AM EST (1/17) No Moon Set
Length of Visible Light 11h 12m
Length of Day
10h 20m
Waxing Crescent, 37% of the Moon is Illuminated
Jan 17
Waxing Crescent
Jan 18
First Quarter
Jan 26
Full
Feb 3
Last Quarter
Feb 10
New

Hourly Weather History & Observations

Time (EST) Temp. Windchill Dew Point Humidity Pressure Visibility Wind Dir Wind Speed Gust Speed Precip Events Conditions
12:55 AM 64.4 °F - 59.7 °F 85% 29.99 in 10.0 mi SSW 3.5 mph - N/A   Clear
1:55 AM 61.5 °F - 58.3 °F 89% 29.99 in 10.0 mi SE 3.5 mph - N/A   Clear
2:55 AM 61.7 °F - 59.7 °F 93% 29.98 in 10.0 mi South 3.5 mph - N/A   Clear
3:55 AM 61.0 °F - 59.2 °F 94% 29.96 in 10.0 mi South 3.5 mph - N/A   Clear
4:55 AM 61.9 °F - 59.0 °F 90% 29.95 in 10.0 mi Variable 4.6 mph - N/A   Clear
5:55 AM 61.0 °F - 58.3 °F 91% 29.95 in 10.0 mi SSE 4.6 mph - N/A   Clear
6:55 AM 61.5 °F - 58.6 °F 90% 29.95 in 10.0 mi SSE 5.8 mph - N/A   Clear
7:55 AM 62.2 °F - 58.6 °F 88% 29.95 in 10.0 mi South 5.8 mph - N/A   Clear
8:55 AM 65.7 °F - 59.5 °F 81% 29.95 in 10.0 mi SSE 5.8 mph - N/A   Clear
9:55 AM 69.1 °F - 60.6 °F 74% 29.94 in 10.0 mi SSE 9.2 mph - N/A   Partly Cloudy
10:55 AM 73.4 °F - 61.5 °F 66% 29.91 in 10.0 mi SSE 10.4 mph - N/A   Partly Cloudy
11:55 AM 75.4 °F - 62.1 °F 63% 29.86 in 10.0 mi South 11.5 mph 18.4 mph N/A   Clear
12:55 PM 75.6 °F - 61.9 °F 62% 29.81 in 10.0 mi South 11.5 mph - N/A   Scattered Clouds
1:55 PM 70.0 °F - 61.3 °F 74% 29.78 in 10.0 mi SSE 10.4 mph - N/A   Overcast
2:08 PM 69.8 °F - 60.8 °F 73% 29.78 in 10.0 mi South 10.4 mph 18.4 mph N/A   Overcast
2:15 PM 69.8 °F - 62.6 °F 78% 29.79 in 6.0 mi SSW 20.7 mph 28.8 mph N/A Rain Light Rain
2:29 PM 62.6 °F - 59.0 °F 88% 29.81 in 7.0 mi West 27.6 mph 33.4 mph N/A Rain Light Rain
2:40 PM 60.8 °F - 57.2 °F 88% 29.82 in 10.0 mi WSW 17.3 mph 32.2 mph N/A   Overcast
2:42 PM 60.8 °F - 57.2 °F 88% 29.82 in 9.0 mi West 19.6 mph 28.8 mph N/A   Light Drizzle
2:43 PM 60.8 °F - 57.2 °F 88% 29.82 in 9.0 mi West 20.7 mph 28.8 mph N/A   Light Drizzle
2:49 PM 59.0 °F - 57.2 °F 94% 29.83 in 8.0 mi West 24.2 mph 32.2 mph N/A   Light Drizzle
2:53 PM 59.0 °F - 55.4 °F 88% 29.83 in 6.0 mi West 23.0 mph 32.2 mph N/A   Light Drizzle
2:55 PM 58.3 °F - 55.9 °F 92% 29.83 in 5.0 mi WSW 25.3 mph 33.4 mph 0.02 in   Light Drizzle
2:59 PM 57.2 °F - 55.4 °F 94% 29.83 in 6.0 mi WSW 20.7 mph 33.4 mph N/A   Light Drizzle
3:03 PM 57.2 °F - 55.4 °F 94% 29.83 in 7.0 mi WSW 18.4 mph 33.4 mph N/A   Light Drizzle
3:08 PM 57.2 °F - 55.4 °F 94% 29.83 in 10.0 mi WSW 19.6 mph 27.6 mph N/A   Overcast
3:09 PM 57.2 °F - 55.4 °F 94% 29.83 in 10.0 mi WSW 18.4 mph 27.6 mph N/A   Overcast
3:17 PM 57.2 °F - 55.4 °F 94% 29.83 in 10.0 mi WSW 15.0 mph 26.5 mph N/A   Overcast
3:28 PM 57.2 °F - 53.6 °F 88% 29.84 in 10.0 mi West 19.6 mph 26.5 mph N/A   Light Drizzle
3:30 PM 57.2 °F - 53.6 °F 88% 29.84 in 10.0 mi West 20.7 mph 31.1 mph N/A   Light Drizzle
3:40 PM 55.4 °F - 51.8 °F 88% 29.86 in 9.0 mi WSW 20.7 mph 31.1 mph N/A Rain Light Rain
3:55 PM 54.9 °F - 52.2 °F 91% 29.87 in 5.0 mi West 17.3 mph 27.6 mph 0.02 in Rain Rain
3:56 PM 55.4 °F - 51.8 °F 88% 29.87 in 5.0 mi West 16.1 mph 27.6 mph N/A Rain Rain
4:00 PM 53.6 °F - 51.8 °F 94% 29.88 in 4.0 mi West 19.6 mph 24.2 mph N/A Rain Light Rain
4:04 PM 53.6 °F - 51.8 °F 94% 29.88 in 5.0 mi West 20.7 mph 28.8 mph N/A Rain Rain
4:14 PM 51.8 °F - 50.0 °F 94% 29.88 in 6.0 mi WSW 23.0 mph 29.9 mph N/A Rain Light Rain
4:27 PM 51.8 °F - 48.2 °F 88% 29.88 in 10.0 mi WSW 15.0 mph - N/A   Overcast
4:31 PM 50.0 °F - 48.2 °F 94% 29.87 in 10.0 mi SW 10.4 mph 20.7 mph N/A   Overcast
4:55 PM 51.6 °F - 47.5 °F 86% 29.88 in 10.0 mi WSW 10.4 mph - 0.03 in   Overcast
5:55 PM 50.2 °F - 45.9 °F 85% 29.90 in 10.0 mi SW 8.1 mph - N/A   Clear
6:55 PM 50.7 °F - 46.6 °F 86% 29.94 in 10.0 mi WSW 12.7 mph 18.4 mph N/A   Mostly Cloudy
8:55 PM 46.2 °F 39.0 °F 36.9 °F 70% 30.05 in 10.0 mi WNW 18.4 mph 25.3 mph N/A   Overcast
9:55 PM 46.0 °F 39.0 °F 35.4 °F 66% 30.07 in 10.0 mi WNW 17.3 mph - N/A   Overcast
10:42 PM 44.6 °F 37.2 °F 33.8 °F 66% 30.10 in 10.0 mi WNW 17.3 mph 25.3 mph N/A   Overcast
10:55 PM 43.7 °F 36.6 °F 34.2 °F 69% 30.10 in 10.0 mi WNW 15.0 mph 21.9 mph N/A   Mostly Cloudy
11:00 PM 42.8 °F 35.8 °F 33.8 °F 70% 30.10 in 10.0 mi WNW 13.8 mph 21.9 mph N/A   Scattered Clouds
11:55 PM 42.1 °F 35.2 °F 33.8 °F 72% 30.11 in 10.0 mi WNW 12.7 mph - N/A   Mostly Cloudy